Palmdale, CA

3:40 AM PST on February 08, 2016 (GMT -0800)
Palmdale Af Plant 42

Weather History for KPMD - April, 2014

Change the Weather History Date:

Friday, April 11, 2014

  Actual Average Record
Temperature  
Mean Temperature 73 °F 57 °F  
Max Temperature 84 °F 71 °F 93 °F (1988)
Min Temperature 61 °F 42 °F 27 °F (1953)
Degree Days  
Heating Degree Days 0 9  
Month to date heating degree days 80 107  
Since 1 July heating degree days 2241 2728  
Cooling Degree Days 8 0  
Month to date cooling degree days 18 0  
Year to date cooling degree days 19 2  
Growing Degree Days 23 (Base 50)    
Moisture  
Dew Point 7 °F    
Average Humidity 16    
Maximum Humidity 27    
Minimum Humidity 4    
Precipitation  
Precipitation 0.00 in 0.01 in 0.67 in (1982)
Month to date precipitation 0.11 0.18  
Year to date precipitation 2.07 4.69  
Since 1 July precipitation 4.14  
Snow  
Snow 0.00 in - T in (1967)
Month to date snowfall 0.0  
Since 1 July snowfall 0.0  
Snow Depth 0.00 in    
Sea Level Pressure  
Sea Level Pressure 29.84 in    
Wind  
Wind Speed 15 mph (SW)    
Max Wind Speed 28 mph    
Max Gust Speed 35 mph    
Visibility 10 miles    
Events      
T = Trace of Precipitation, MM = Missing Value Source: NWS Daily Summary

Daily Weather History Graph

Daily Weather History Graph

Search for Another Location

Airport or City:

Trip Planner

Search our weather history database for the weather conditions in past years. The results will help you decide how hot, cold, wet, or windy it might be!

Date:

Astronomy

Apr. 11, 2014 Rise Set
Actual Time 6:25 AM PDT 7:21 PM PDT
Civil Twilight 6:00 AM PDT 7:47 PM PDT
Nautical Twilight 5:29 AM PDT 8:17 PM PDT
Astronomical Twilight 4:58 AM PDT 8:49 PM PDT
Moon 4:13 PM PDT (4/11) 4:14 AM PDT (4/11)
Length of Visible Light 13h 47m
Length of Day
12h 55m
Waxing Gibbous, 87% of the Moon is Illuminated
Apr 11
Waxing Gibbous
Apr 15
Full
Apr 22
Last Quarter
Apr 28
New
May 6
First Quarter

Hourly Weather History & Observations

Time (PDT) Temp. Dew Point Humidity Pressure Visibility Wind Dir Wind Speed Gust Speed Precip Events Conditions
12:53 AM 63.0 °F 12.0 °F 14% 29.91 in 10.0 mi ENE 4.6 mph - N/A   Clear
1:53 AM 62.1 °F 10.0 °F 13% 29.88 in 10.0 mi South 4.6 mph - N/A   Clear
2:53 AM 62.1 °F 5.0 °F 10% 29.87 in 10.0 mi South 9.2 mph - N/A   Clear
3:53 AM 68.0 °F -7.1 °F 5% 29.86 in 10.0 mi SW 11.5 mph - N/A   Clear
4:53 AM 66.9 °F -6.0 °F 5% 29.85 in 10.0 mi SW 10.4 mph - N/A   Clear
5:53 AM 66.9 °F -9.0 °F 5% 29.86 in 10.0 mi SW 11.5 mph - N/A   Clear
6:53 AM 66.0 °F -4.0 °F 6% 29.86 in 10.0 mi Variable 4.6 mph - N/A   Clear
7:53 AM 71.1 °F -9.9 °F 4% 29.88 in 10.0 mi West 5.8 mph - N/A   Clear
8:53 AM 72.0 °F 14.0 °F 11% 29.87 in 10.0 mi North 8.1 mph - N/A   Clear
9:53 AM 78.1 °F -6.0 °F 4% 29.87 in 10.0 mi SW 15.0 mph - N/A   Clear
10:53 AM 80.1 °F -2.0 °F 4% 29.87 in 10.0 mi SW 17.3 mph 26.5 mph N/A   Clear
11:53 AM 82.0 °F 5.0 °F 5% 29.86 in 10.0 mi SW 17.3 mph - N/A   Clear
12:53 PM 82.9 °F 3.0 °F 5% 29.85 in 10.0 mi SW 24.2 mph 31.1 mph N/A   Clear
1:53 PM 84.0 °F 6.1 °F 5% 29.83 in 10.0 mi SW 21.9 mph 29.9 mph N/A   Clear
2:53 PM 82.9 °F 10.0 °F 6% 29.81 in 10.0 mi SW 18.4 mph 32.2 mph N/A   Clear
3:53 PM 79.0 °F 12.0 °F 8% 29.77 in 10.0 mi SW 18.4 mph 27.6 mph N/A   Clear
4:53 PM 80.1 °F 10.0 °F 7% 29.77 in 10.0 mi WSW 21.9 mph 28.8 mph N/A   Clear
5:53 PM 77.0 °F 9.0 °F 7% 29.77 in 10.0 mi WSW 17.3 mph 21.9 mph N/A   Clear
6:53 PM 73.0 °F 9.0 °F 8% 29.80 in 10.0 mi West 16.1 mph 24.2 mph N/A   Clear
7:53 PM 66.0 °F 24.1 °F 20% 29.81 in 10.0 mi WSW 15.0 mph - N/A   Clear
8:53 PM 64.0 °F 25.0 °F 23% 29.82 in 10.0 mi SSW 19.6 mph - N/A   Clear
9:53 PM 63.0 °F 28.0 °F 27% 29.83 in 10.0 mi SW 13.8 mph - N/A   Clear
10:53 PM 64.0 °F 18.0 °F 17% 29.81 in 10.0 mi SW 15.0 mph - N/A   Clear
11:53 PM 64.0 °F 19.9 °F 18% 29.80 in 10.0 mi SW 16.1 mph - N/A   Clear